1485910800.31,6629,9.75,73272.0,-5.57,-7.99,-7.27,0,*69
1485910801.55,6630,9.81,73274.5,-5.55,-7.99,-7.27,0,*63
1485910802.82,6631,9.81,73272.0,-5.57,-7.99,-7.31,0,*67
1485910804.06,6632,9.75,73270.5,-5.55,-7.95,-7.27,0,*6D
1485910805.3,6633,9.75,73268.5,-5.57,-7.99,-7.19,0,*6F
1485910806.51,6634,9.75,73270.3,-5.55,-7.91,-7.15,0,*6E
1485910807.73,6635,9.75,73270.5,-5.55,-7.95,-7.15,0,*6B
1485910808.94,6636,9.75,73272.5,-5.55,-7.95,-7.15,0,*68
1485910810.19,6637,9.75,73272.3,-5.57,-7.95,-7.19,0,*67
1485910811.4,6638,9.81,73272.5,-5.55,-7.95,-7.15,0,*66
1485910812.62,6639,9.75,73270.3,-5.55,-7.95,-7.11,0,*63
1485910813.84,6640,9.75,73272.5,-5.55,-7.95,-7.11,0,*6D
1485910815.06,6641,9.75,73270.8,-5.55,-7.91,-7.11,0,*68
1485910816.27,6642,9.75,73270.5,-5.55,-7.91,-7.11,0,*6B
1485910817.49,6643,9.75,73270.5,-5.55,-7.95,-7.11,0,*6E
1485910818.71,6644,9.75,73274.3,-5.55,-7.95,-7.11,0,*69
1485910819.93,6645,9.75,73274.0,-5.55,-7.95,-7.11,0,*68
1485910821.18,6646,9.81,73272.5,-5.53,-7.95,-7.11,0,*6D
1485910822.42,6647,9.75,73272.3,-5.53,-7.83,-7.01,0,*6A
1485910823.66,6648,9.81,73274.3,-5.53,-7.83,-7.01,0,*65
1485910824.91,6649,9.75,73274.3,-5.53,-7.83,-7.01,0,*64
1485910826.13,6650,9.75,73272.8,-5.53,-7.83,-7.11,0,*6D
1485910827.38,6651,9.75,73272.8,-5.53,-7.83,-7.01,0,*6D
1485910828.64,6652,9.75,73272.3,-5.53,-7.77,-7.01,0,*65
1485910829.91,6653,9.81,73276.3,-5.53,-7.69,-7.01,0,*6B
1485910831.18,6654,9.75,73268.5,-5.53,-7.69,-6.97,0,*62
1485910832.4,6655,9.81,73272.5,-5.51,-7.61,-6.85,0,*6A
1485910833.67,6656,9.75,73274.5,-5.53,-7.65,-6.97,0,*6C
1485910834.94,6657,9.75,73272.3,-5.53,-7.65,-6.97,0,*6D
1485910836.16,6658,9.75,73272.0,-5.55,-7.57,-6.89,0,*6A
1485910837.37,6659,9.75,73272.0,-5.55,-7.57,-6.89,0,*6B
1485910838.56,6660,9.75,73274.5,-5.55,-7.53,-6.89,0,*65
1485910839.78,6661,9.75,73274.3,-5.53,-7.53,-6.89,0,*62
1485910841.03,6662,9.75,73274.8,-5.53,-7.43,-6.89,0,*60
1485910842.27,6663,9.75,73272.0,-5.53,-7.43,-6.85,0,*6D
1485910843.51,6664,9.75,73274.5,-5.53,-7.39,-6.85,0,*67
1485910844.76,6665,9.75,73274.0,-5.53,-7.43,-6.77,0,*66
1485910845.99,6666,9.75,73272.0,-5.53,-7.39,-6.77,0,*68
1485910847.24,6667,9.75,73270.5,-5.53,-7.27,-6.77,0,*66
1485910848.48,6668,9.75,73272.5,-5.53,-7.31,-6.85,0,*63
1485910849.72,6669,9.75,73274.3,-5.53,-7.27,-6.85,0,*65
1485910850.94,6670,9.81,73276.0,-5.53,-7.23,-6.77,0,*64
1485910852.16,6671,9.75,73272.0,-5.53,-7.15,-6.77,0,*60
1485910853.38,6672,9.75,73274.3,-5.53,-7.23,-6.77,0,*66
1485910854.6,6673,9.75,73274.3,-5.53,-7.23,-6.73,0,*63
1485910855.82,6674,9.81,73274.5,-5.53,-7.23,-6.77,0,*60
1485910857.04,6675,9.75,73272.8,-5.53,-7.23,-6.73,0,*65
1485910858.26,6676,9.75,73272.3,-5.53,-7.15,-6.77,0,*67
1485910859.46,6677,9.75,73270.3,-5.51,-7.15,-6.77,0,*64
1485910860.65,6678,9.75,73268.5,-5.51,-7.23,-6.77,0,*6E
1485910861.84,6679,9.75,73274.3,-5.51,-7.11,-6.69,0,*61
1485910863.06,6680,9.75,73274.0,-5.53,-7.15,-6.59,0,*62
1485910864.26,6681,9.81,73274.3,-5.51,-7.11,-6.73,0,*6D
1485910865.45,6682,9.75,73274.5,-5.51,-7.11,-6.69,0,*65
1485910866.67,6683,9.75,73272.0,-5.53,-7.15,-6.73,0,*69
1485910867.9,6684,9.75,73274.3,-5.53,-7.11,-6.73,0,*6A
1485910869.11,6685,9.75,73272.0,-5.51,-7.05,-6.69,0,*67
1485910870.33,6686,9.75,73272.0,-5.51,-7.05,-6.59,0,*67
1485910871.54,6687,9.75,73274.0,-5.51,-7.05,-6.69,0,*65
1485910872.78,6688,9.75,73272.3,-5.53,-7.01,-6.73,0,*67
1485910874.0,6689,9.75,73274.0,-5.51,-6.97,-6.69,0,*61
1485910875.21,6690,9.81,73276.3,-5.51,-6.97,-6.69,0,*69
1485910876.44,6691,9.81,73278.3,-5.51,-6.97,-6.59,0,*6B
1485910877.71,6692,9.75,73274.5,-5.53,-7.01,-6.63,0,*6D
1485910878.95,6693,9.75,73274.0,-5.53,-6.97,-6.69,0,*68
1485910880.17,6694,9.75,73274.0,-5.51,-6.93,-6.59,0,*6A
1485910881.37,6695,9.81,73274.3,-5.51,-6.85,-6.59,0,*6C
1485910882.64,6696,9.75,73270.3,-5.53,-6.97,-6.63,0,*67
1485910883.83,6697,9.75,73268.5,-5.51,-6.85,-6.59,0,*6E
1485910885.06,6698,9.75,73272.0,-5.51,-6.93,-6.59,0,*66
1485910886.27,6699,9.75,73272.5,-5.53,-6.89,-6.73,0,*66
1485910887.49,6700,9.75,73272.8,-5.53,-6.89,-6.59,0,*6F
1485910888.74,6701,9.81,73274.5,-5.53,-6.97,-6.59,0,*61
1485910889.94,6702,9.75,73270.5,-5.51,-6.85,-6.55,0,*6F
1485910891.13,6703,9.75,73272.8,-5.51,-6.85,-6.51,0,*6A
1485910892.33,6704,9.75,73268.8,-5.51,-6.81,-6.47,0,*6E
1485910893.52,6705,9.75,73274.5,-5.51,-6.85,-6.55,0,*68
1485910894.72,6706,9.81,73272.8,-5.51,-6.77,-6.51,0,*62
1485910895.92,6707,9.75,73272.8,-5.51,-6.81,-6.47,0,*6D
1485910897.11,6708,9.75,73268.5,-5.51,-6.73,-6.47,0,*6F
1485910898.31,6709,9.75,73270.0,-5.51,-6.81,-6.55,0,*60
1485910899.53,6710,9.75,73272.3,-5.53,-6.77,-6.51,0,*67
1485910900.75,6711,9.75,73272.0,-5.53,-6.73,-6.59,0,*6A
1485910901.94,6712,9.75,73274.0,-5.51,-6.69,-6.47,0,*6F
1485910903.13,6713,9.75,73274.0,-5.51,-6.69,-6.55,0,*6D
1485910904.32,6714,9.81,73272.5,-5.51,-6.69,-6.47,0,*69
1485910905.54,6715,9.75,73272.5,-5.49,-6.69,-6.47,0,*61
1485910906.75,6716,9.75,73272.0,-5.49,-6.69,-6.55,0,*61
1485910907.95,6717,9.75,73274.0,-5.51,-6.59,-6.47,0,*69
1485910909.16,6718,9.75,73272.5,-5.49,-6.69,-6.47,0,*6C
1485910910.38,6719,9.81,73272.8,-5.49,-6.59,-6.55,0,*6D
1485910911.59,6720,9.75,73270.3,-5.49,-6.69,-6.55,0,*64
1485910912.81,6721,9.75,73272.8,-5.49,-6.59,-6.47,0,*65
1485910914.03,6722,9.75,73274.5,-5.49,-6.69,-6.55,0,*66
1485910915.25,6723,9.75,73270.3,-5.49,-6.59,-6.47,0,*67
1485910916.46,6724,9.75,73274.0,-5.49,-6.59,-6.47,0,*60
1485910917.71,6725,9.75,73270.8,-5.45,-6.63,-6.51,0,*63
1485910918.93,6726,9.81,73276.5,-5.49,-6.59,-6.47,0,*62
1485910920.15,6727,9.75,73274.5,-5.49,-6.59,-6.55,0,*60
1485910921.37,6728,9.75,73270.5,-5.45,-6.55,-6.51,0,*6B
1485910922.59,6729,9.75,73268.8,-5.49,-6.59,-6.47,0,*6D
1485910923.81,6730,9.75,73270.3,-5.49,-6.59,-6.47,0,*65
1485910925.03,6731,9.75,73274.8,-5.49,-6.59,-6.47,0,*64
1485910926.25,6732,9.75,73270.5,-5.49,-6.59,-6.47,0,*67
1485910927.47,6733,9.75,73272.8,-5.49,-6.55,-6.47,0,*6A
1485910928.69,6734,9.75,73270.5,-5.49,-6.47,-6.47,0,*6E
1485910929.91,6735,9.75,73272.8,-5.49,-6.55,-6.47,0,*6C
1485910931.13,6736,9.75,73272.8,-5.49,-6.55,-6.47,0,*6F
1485910932.34,6737,9.75,73274.0,-5.49,-6.55,-6.55,0,*6D
1485910933.56,6738,9.75,73268.8,-5.49,-6.55,-6.55,0,*62
1485910934.78,6739,9.75,73268.8,-5.49,-6.47,-6.55,0,*60
1485910936.0,6740,9.75,73272.8,-5.49,-6.55,-6.47,0,*6E
1485910937.22,6741,9.75,73270.5,-5.49,-6.59,-6.55,0,*60
1485910938.44,6742,9.81,73274.3,-5.49,-6.59,-6.55,0,*63
1485910939.66,6743,9.75,73268.5,-5.49,-6.59,-6.55,0,*62
1485910940.88,6744,9.75,73272.0,-5.49,-6.55,-6.59,0,*65
1485910942.1,6745,9.75,73268.3,-5.49,-6.55,-6.55,0,*68
1485910943.32,6746,9.75,73268.5,-5.49,-6.59,-6.55,0,*67
1485910944.54,6747,9.75,73266.3,-5.49,-6.59,-6.55,0,*66
1485910945.76,6748,9.81,73268.8,-5.49,-6.59,-6.59,0,*65
1485910946.97,6749,9.75,73268.0,-5.49,-6.69,-6.59,0,*67
1485910948.18,6750,9.75,73268.5,-5.49,-6.69,-6.69,0,*6C
1485910949.39,6751,9.75,73268.5,-5.49,-6.59,-6.69,0,*6E
1485910950.61,6752,9.75,73270.8,-5.49,-6.59,-6.59,0,*6E
1485910951.83,6753,9.75,73270.0,-5.49,-6.59,-6.59,0,*6F
1485910953.06,6754,9.75,73270.0,-5.45,-6.55,-6.51,0,*60
1485910954.27,6755,9.75,73270.5,-5.49,-6.59,-6.69,0,*6A
1485910955.48,6756,9.75,73268.3,-5.49,-6.69,-6.69,0,*6A
1485910956.69,6757,9.75,73264.5,-5.49,-6.59,-6.69,0,*68
1485910957.93,6758,9.75,73266.0,-5.45,-6.63,-6.55,0,*6D
1485910959.17,6759,9.75,73266.0,-5.45,-6.63,-6.55,0,*6C
1485910960.39,6760,9.75,73264.8,-5.49,-6.59,-6.69,0,*6C
1485910961.6,6761,9.75,73268.5,-5.49,-6.59,-6.69,0,*6D
1485910962.82,6762,9.75,73270.3,-5.49,-6.59,-6.59,0,*6D
1485910964.04,6763,9.75,73268.5,-5.49,-6.69,-6.59,0,*6F
1485910965.28,6764,9.75,73268.3,-5.45,-6.63,-6.55,0,*62
1485910966.5,6765,9.75,73268.8,-5.49,-6.59,-6.59,0,*6A
1485910967.72,6766,9.75,73266.8,-5.49,-6.59,-6.59,0,*69
1485910968.93,6767,9.75,73270.0,-5.49,-6.59,-6.69,0,*6B
1485910970.14,6768,9.75,73268.3,-5.49,-6.69,-6.69,0,*67
1485910971.36,6769,9.75,73266.0,-5.49,-6.59,-6.81,0,*63
1485910972.6,6770,9.75,73268.0,-5.45,-6.63,-6.69,0,*68
1485910973.81,6771,9.75,73270.3,-5.49,-6.69,-6.73,0,*64
1485910975.02,6772,9.75,73268.3,-5.49,-6.69,-6.73,0,*67
1485910976.23,6773,9.75,73268.3,-5.49,-6.69,-6.73,0,*66
1485910977.45,6774,9.75,73270.5,-5.49,-6.59,-6.69,0,*69
1485910978.71,6775,9.75,73270.3,-5.45,-6.63,-6.63,0,*67
1485910979.93,6776,9.75,73268.3,-5.49,-6.69,-6.81,0,*6E
1485910981.14,6777,9.75,73270.0,-5.49,-6.69,-6.69,0,*69
1485910982.33,6778,9.75,73270.0,-5.51,-6.69,-6.73,0,*64
1485910983.56,6779,9.75,73268.0,-5.45,-6.63,-6.69,0,*61
1485910984.8,6780,9.75,73270.0,-5.45,-6.63,-6.77,0,*68
1485910986.01,6781,9.75,73270.8,-5.49,-6.69,-6.73,0,*6B
1485910987.22,6782,9.75,73268.0,-5.49,-6.69,-6.73,0,*68
1485910988.43,6783,9.75,73268.8,-5.49,-6.69,-6.73,0,*69
1485910989.65,6784,9.75,73270.8,-5.49,-6.73,-6.73,0,*65
1485910990.87,6785,9.75,73270.0,-5.49,-6.69,-6.81,0,*62
1485910992.08,6786,9.75,73266.3,-5.49,-6.59,-6.73,0,*6F
1485910993.29,6787,9.75,73270.0,-5.49,-6.69,-6.73,0,*6D
1485910994.5,6788,9.75,73268.5,-5.49,-6.69,-6.69,0,*69
1485910995.72,6789,9.75,73270.0,-5.49,-6.69,-6.81,0,*6E
1485910996.94,6790,9.75,73270.3,-5.49,-6.59,-6.73,0,*68
1485910998.15,6791,9.81,73274.5,-5.49,-6.69,-6.73,0,*6A
1485910999.36,6792,9.75,73268.8,-5.49,-6.69,-6.73,0,*69
1485911000.57,6793,9.75,73266.0,-5.49,-6.69,-6.73,0,*68
1485911001.79,6794,9.75,73270.3,-5.49,-6.59,-6.73,0,*6C
1485911003.0,6795,9.75,73270.3,-5.49,-6.69,-6.73,0,*6E
1485911004.24,6796,9.75,73268.3,-5.45,-6.63,-6.77,0,*6F
1485911005.45,6797,9.75,73272.8,-5.49,-6.69,-6.85,0,*65
1485911006.67,6798,9.81,73272.8,-5.49,-6.69,-6.81,0,*6E
1485911007.9,6799,9.75,73268.8,-5.49,-6.59,-6.81,0,*6C
1485911009.11,6800,9.75,73270.0,-5.49,-6.69,-6.81,0,*60
1485911010.35,6801,9.75,73270.3,-5.45,-6.63,-6.77,0,*6E
1485911011.59,6802,9.75,73270.3,-5.45,-6.63,-6.77,0,*6D
1485911012.81,6803,9.75,73270.0,-5.49,-6.69,-6.81,0,*63
1485911014.03,6804,9.75,73270.3,-5.49,-6.73,-6.81,0,*6F
1485911015.26,6805,9.81,73274.8,-5.49,-6.59,-6.81,0,*66
1485911016.47,6806,9.75,73270.8,-5.45,-6.55,-6.69,0,*63
1485911017.69,6807,9.75,73270.0,-5.49,-6.69,-6.81,0,*67
1485911018.91,6808,9.81,73274.3,-5.49,-6.73,-6.81,0,*63
1485911020.13,6809,9.75,73268.5,-5.45,-6.69,-6.77,0,*6C
1485911021.35,6810,9.75,73268.8,-5.49,-6.69,-6.81,0,*61
1485911022.56,6811,9.75,73270.5,-5.49,-6.73,-6.85,0,*6F
1485911023.78,6812,9.75,73268.0,-5.49,-6.81,-6.85,0,*61
1485911025.0,6813,9.75,73268.8,-5.49,-6.81,-6.85,0,*60
1485911026.21,6814,9.75,73270.3,-5.49,-6.73,-6.85,0,*6A
1485911027.43,6815,9.75,73272.3,-5.49,-6.69,-6.85,0,*60
1485911028.64,6816,9.75,73268.8,-5.49,-6.69,-6.85,0,*63
1485911029.85,6817,9.75,73270.3,-5.49,-6.73,-6.85,0,*69
1485911031.06,6818,9.75,73270.3,-5.49,-6.69,-6.85,0,*6D
1485911032.28,6819,9.75,73268.0,-5.49,-6.59,-6.73,0,*66
1485911033.51,6820,9.75,73268.5,-5.45,-6.55,-6.81,0,*61
1485911034.72,6821,9.75,73270.3,-5.49,-6.69,-6.85,0,*67
1485911035.93,6822,9.75,73270.3,-5.49,-6.69,-6.85,0,*64
1485911037.15,6823,9.75,73270.5,-5.49,-6.73,-6.85,0,*6E
1485911038.36,6824,9.81,73274.0,-5.49,-6.73,-6.85,0,*69
1485911039.58,6825,9.75,73268.5,-5.49,-6.81,-6.85,0,*65
1485911040.79,6826,9.75,73272.0,-5.49,-6.69,-6.85,0,*60
1485911042.0,6827,9.75,73272.3,-5.49,-6.69,-6.85,0,*61
1485911043.23,6828,9.75,73270.8,-5.49,-6.59,-6.81,0,*69
1485911044.44,6829,9.75,73268.5,-5.49,-6.69,-6.85,0,*6F
1485911045.65,6830,9.75,73270.8,-5.49,-6.69,-6.85,0,*67
1485911046.88,6831,9.75,73268.3,-5.49,-6.59,-6.81,0,*61
1485911048.11,6832,9.75,73268.5,-5.45,-6.63,-6.77,0,*6E
1485911049.36,6833,9.75,73270.0,-5.49,-6.73,-6.93,0,*68
1485911050.57,6834,9.75,73272.0,-5.49,-6.59,-6.85,0,*60
1485911051.8,6835,9.75,73268.5,-5.49,-6.59,-6.81,0,*65
1485911053.01,6836,9.75,73268.5,-5.49,-6.59,-6.85,0,*62
1485911054.23,6837,9.75,73270.0,-5.49,-6.59,-6.85,0,*63
1485911055.45,6838,9.75,73266.8,-5.45,-6.55,-6.77,0,*61
1485911056.67,6839,9.75,73270.0,-5.49,-6.69,-6.81,0,*6A
1485911057.89,6840,9.75,73268.3,-5.45,-6.55,-6.77,0,*6E
1485911059.11,6841,9.75,73270.5,-5.49,-6.69,-6.81,0,*65
1485911060.34,6842,9.75,73266.8,-5.45,-6.55,-6.81,0,*65
1485911061.55,6843,9.75,73268.5,-5.49,-6.59,-6.85,0,*60
1485911062.78,6844,9.75,73272.0,-5.45,-6.55,-6.81,0,*63
1485911063.99,6845,9.75,73268.0,-5.49,-6.69,-6.85,0,*65
1485911065.2,6846,9.75,73264.8,-5.49,-6.69,-6.85,0,*66
1485911066.42,6847,9.75,73272.3,-5.45,-6.69,-6.89,0,*67
1485911067.66,6848,9.75,73270.3,-5.45,-6.63,-6.81,0,*6A
1485911068.9,6849,9.75,73270.3,-5.45,-6.63,-6.89,0,*63
1485911070.14,6850,9.75,73270.8,-5.45,-6.63,-6.89,0,*6B
1485911071.38,6851,9.75,73266.0,-5.45,-6.63,-6.89,0,*6A
1485911072.6,6852,9.75,73268.5,-5.45,-6.69,-6.89,0,*63
1485911073.81,6853,9.75,73268.8,-5.45,-6.69,-6.89,0,*62
1485911075.03,6854,9.75,73268.3,-5.45,-6.69,-6.89,0,*65
1485911076.27,6855,9.75,73268.5,-5.49,-6.73,-6.93,0,*68
1485911077.51,6856,9.75,73270.0,-5.49,-6.73,-6.93,0,*6B
1485911078.72,6857,9.75,73270.5,-5.45,-6.69,-6.89,0,*66
1485911079.96,6858,9.81,73274.5,-5.45,-6.69,-6.93,0,*62
1485911081.21,6859,9.75,73270.3,-5.45,-6.77,-6.93,0,*6C
1485911082.45,6860,9.75,73270.3,-5.45,-6.69,-6.93,0,*69
1485911083.67,6861,9.75,73270.8,-5.45,-6.69,-6.81,0,*6B
1485911084.91,6862,9.75,73272.0,-5.45,-6.63,-6.89,0,*6A
1485911086.13,6863,9.75,73270.8,-5.45,-6.55,-6.89,0,*6E
1485911087.35,6864,9.75,73270.0,-5.45,-6.77,-6.89,0,*69
1485911088.57,6865,9.75,73270.0,-5.45,-6.69,-6.89,0,*67
1485911089.79,6866,9.75,73268.3,-5.45,-6.77,-6.89,0,*6B
1485911091.01,6867,9.75,73270.3,-5.45,-6.69,-6.89,0,*65
1485911092.22,6868,9.75,73270.8,-5.45,-6.69,-6.89,0,*6A
1485911093.49,6869,9.75,73268.8,-5.45,-6.63,-6.93,0,*6A
1485911094.73,6870,9.75,73268.8,-5.45,-6.69,-6.93,0,*68
1485911095.97,6871,9.75,73268.0,-5.45,-6.69,-6.93,0,*69
1485911097.21,6872,9.75,73268.3,-5.45,-6.69,-6.93,0,*6A
1485911098.45,6873,9.75,73270.3,-5.45,-6.69,-6.93,0,*6B
1485911099.69,6874,9.75,73268.3,-5.45,-6.69,-7.01,0,*66
1485911100.93,6875,9.75,73268.8,-5.45,-6.77,-7.01,0,*68
1485911102.17,6876,9.75,73268.0,-5.45,-6.69,-7.01,0,*64
1485911103.41,6877,9.75,73270.3,-5.45,-6.69,-7.01,0,*65
1485911104.63,6878,9.75,73268.8,-5.43,-6.77,-7.01,0,*63
1485911105.87,6879,9.75,73270.0,-5.45,-6.69,-7.01,0,*6B
1485911107.11,6880,9.81,73274.0,-5.45,-6.69,-7.01,0,*6D
1485911108.32,6881,9.75,73270.5,-5.43,-6.73,-6.97,0,*6F
1485911109.57,6882,9.75,73272.0,-5.45,-6.77,-7.01,0,*60
1485911110.82,6883,9.75,73268.3,-5.45,-6.77,-7.01,0,*61
1485911112.06,6884,9.75,73268.3,-5.45,-6.77,-7.01,0,*66
1485911113.31,6885,9.75,73268.0,-5.45,-6.77,-7.01,0,*67
1485911114.55,6886,9.75,73270.3,-5.45,-6.69,-7.01,0,*6B
1485911115.8,6887,9.75,73270.5,-5.45,-6.77,-7.01,0,*65
1485911117.04,6888,9.75,73270.8,-5.45,-6.77,-7.01,0,*6A
1485911118.29,6889,9.75,73272.3,-5.45,-6.77,-7.01,0,*6B
1485911119.53,6890,9.75,73270.8,-5.45,-6.81,-7.05,0,*6E
1485911120.77,6891,9.75,73274.5,-5.45,-6.81,-7.05,0,*6F
1485911122.01,6892,9.75,73274.3,-5.45,-6.81,-7.05,0,*6C
1485911123.24,6893,9.75,73270.3,-5.45,-6.81,-7.15,0,*6C
1485911124.48,6894,9.75,73270.5,-5.45,-6.81,-7.05,0,*6A
1485911125.71,6895,9.81,73272.3,-5.45,-6.89,-7.05,0,*63
1485911126.94,6896,9.75,73264.5,-5.45,-6.81,-7.15,0,*69
1485911128.16,6897,9.75,73270.5,-5.45,-6.81,-7.15,0,*68
1485911129.39,6898,9.75,73262.5,-5.45,-6.77,-7.15,0,*6E
1485911130.59,6899,9.75,73270.5,-5.43,-6.77,-7.11,0,*6D
1485911131.81,6900,9.75,73270.0,-5.45,-6.89,-7.19,0,*63
1485911133.01,6901,9.75,73272.8,-5.43,-6.77,-7.15,0,*69
1485911134.2,6902,9.75,73268.5,-5.43,-6.85,-7.15,0,*67
1485911135.43,6903,9.75,73266.5,-5.45,-6.81,-7.19,0,*68
1485911136.67,6904,9.75,73268.8,-5.45,-6.93,-7.15,0,*60
1485911137.9,6905,9.75,73268.0,-5.45,-6.81,-7.19,0,*6E
1485911139.12,6906,9.75,73272.0,-5.45,-6.81,-7.19,0,*6D
1485911140.32,6907,9.75,73270.8,-5.43,-6.77,-7.19,0,*63
1485911141.55,6908,9.81,73276.0,-5.45,-6.81,-7.23,0,*6A
1485911142.77,6909,9.75,73272.5,-5.45,-6.89,-7.19,0,*6A
1485911143.96,6910,9.75,73268.5,-5.43,-6.89,-7.23,0,*6D
1485911145.21,6911,9.75,73272.0,-5.45,-6.89,-7.31,0,*69
1485911146.46,6912,9.81,73276.3,-5.45,-6.81,-7.31,0,*62
1485911147.7,6913,9.75,73274.5,-5.45,-6.89,-7.31,0,*6B
1485911148.92,6914,9.75,73270.8,-5.43,-6.89,-7.31,0,*6A
1485911150.17,6915,9.75,73272.8,-5.45,-6.89,-7.35,0,*69
1485911151.41,6916,9.75,73270.5,-5.45,-6.89,-7.35,0,*6A
1485911152.66,6917,9.81,73276.3,-5.45,-6.89,-7.35,0,*6B
1485911153.93,6918,9.75,73272.3,-5.45,-6.93,-7.35,0,*6F
1485911155.18,6919,9.75,73272.3,-5.45,-6.89,-7.35,0,*65
1485911156.42,6920,9.75,73272.8,-5.45,-6.89,-7.31,0,*6B
1485911157.67,6921,9.75,73270.0,-5.45,-6.81,-7.43,0,*67
1485911158.92,6922,9.75,73270.3,-5.45,-6.89,-7.43,0,*6C
1485911160.17,6923,9.75,73270.0,-5.45,-6.81,-7.31,0,*60
1485911161.42,6924,9.75,73270.8,-5.45,-6.89,-7.35,0,*6B
1485911162.66,6925,9.75,73270.5,-5.45,-6.89,-7.35,0,*6A
1485911163.92,6926,9.75,73272.0,-5.45,-6.81,-7.43,0,*60
1485911165.16,6927,9.75,73272.5,-5.45,-6.81,-7.35,0,*60
1485911166.41,6928,9.75,73270.5,-5.45,-6.81,-7.35,0,*6F
1485911167.66,6929,9.75,73268.0,-5.45,-6.89,-7.43,0,*67
1485911168.91,6930,9.75,73270.3,-5.45,-6.81,-7.35,0,*66
1485911170.13,6931,9.75,73272.8,-5.43,-6.77,-7.39,0,*64
1485911171.38,6932,9.75,73270.0,-5.45,-6.89,-7.43,0,*6D
1485911172.63,6933,9.75,73270.0,-5.45,-6.81,-7.35,0,*65
1485911173.85,6934,9.75,73268.0,-5.43,-6.85,-7.31,0,*64
1485911175.1,6935,9.75,73274.0,-5.45,-6.89,-7.43,0,*6A
1485911176.32,6936,9.75,73272.0,-5.43,-6.77,-7.39,0,*63
1485911177.54,6937,9.75,73270.8,-5.45,-6.89,-7.49,0,*62
1485911178.75,6938,9.75,73270.0,-5.45,-6.89,-7.49,0,*6D
1485911180.0,6939,9.75,73268.3,-5.45,-6.89,-7.43,0,*66
1485911181.25,6940,9.75,73268.0,-5.45,-6.93,-7.49,0,*69
1485911182.52,6941,9.75,73268.3,-5.45,-7.01,-7.57,0,*6D
1485911183.77,6942,9.75,73268.5,-5.45,-6.89,-7.57,0,*6F
1485911185.04,6943,9.75,73270.8,-5.45,-6.93,-7.61,0,*60
1485911186.23,6944,9.75,73272.0,-5.43,-6.89,-7.53,0,*6B
1485911187.48,6945,9.75,73270.5,-5.43,-6.97,-7.57,0,*61
1485911188.7,6946,9.75,73270.0,-5.43,-6.89,-7.57,0,*6D
1485911189.92,6947,9.75,73268.3,-5.43,-6.89,-7.57,0,*6C
1485911191.19,6948,9.75,73268.3,-5.45,-6.93,-7.57,0,*6E
1485911192.41,6949,9.75,73268.0,-5.43,-6.89,-7.57,0,*62
1485911193.66,6950,9.75,73264.5,-5.43,-6.97,-7.65,0,*64
1485911194.91,6951,9.75,73268.3,-5.43,-6.97,-7.65,0,*65
1485911196.18,6952,9.75,73268.0,-5.45,-7.01,-7.73,0,*69
1485911197.45,6953,9.75,73270.5,-5.45,-6.93,-7.73,0,*62
1485911198.72,6954,9.75,73268.8,-5.45,-7.01,-7.69,0,*64
1485911199.96,6955,9.75,73272.8,-5.43,-6.97,-7.69,0,*6D
1485911201.21,6956,9.75,73270.3,-5.43,-6.97,-7.65,0,*62
1485911202.45,6957,9.75,73270.8,-5.43,-6.97,-7.65,0,*63
1485911203.73,6958,9.75,73270.3,-5.45,-7.01,-7.73,0,*63
1485911204.97,6959,9.75,73270.0,-5.43,-6.97,-7.77,0,*6E
1485911206.22,6960,9.81,73272.0,-5.45,-7.05,-7.83,0,*63
1485911207.44,6961,9.75,73268.0,-5.43,-7.01,-7.83,0,*60
1485911208.69,6962,9.75,73268.0,-5.43,-7.01,-7.77,0,*68
1485911209.93,6963,9.75,73268.8,-5.43,-7.01,-7.77,0,*69
1485911211.18,6964,9.75,73268.0,-5.45,-7.05,-7.83,0,*67
1485911212.38,6965,9.75,73270.8,-5.43,-7.11,-7.83,0,*65
1485911213.6,6966,9.75,73268.0,-5.45,-7.15,-7.87,0,*60
1485911214.82,6967,9.75,73272.3,-5.43,-7.01,-7.83,0,*66
1485911216.02,6968,9.75,73272.5,-5.43,-7.11,-7.83,0,*68
1485911217.22,6969,9.75,73268.5,-5.43,-7.11,-7.83,0,*69
1485911218.45,6970,9.75,73268.5,-5.45,-7.15,-7.87,0,*67
1485911219.67,6971,9.75,73272.0,-5.45,-7.15,-7.87,0,*66
1485911220.9,6972,9.75,73270.8,-5.45,-7.19,-7.87,0,*69
1485911222.12,6973,9.75,73270.5,-5.43,-7.15,-7.91,0,*65
1485911223.33,6974,9.75,73274.0,-5.43,-7.15,-7.95,0,*66
1485911224.55,6975,9.75,73274.3,-5.43,-7.23,-7.99,0,*6E
1485911225.77,6976,9.75,73272.0,-5.43,-7.19,-7.95,0,*68
1485911226.99,6977,9.75,73270.0,-5.43,-7.19,-7.99,0,*65
1485911228.23,6978,9.75,73270.3,-5.43,-7.27,-7.95,0,*6B
1485911229.44,6979,9.75,73270.3,-5.43,-7.15,-7.99,0,*67
1485911230.68,6980,9.75,73272.8,-5.43,-7.27,-7.95,0,*6C
1485911231.92,6981,9.75,73270.8,-5.43,-7.27,-7.99,0,*61
1485911233.16,6982,9.75,73268.5,-5.43,-7.31,-7.99,0,*65
1485911234.38,6983,9.75,73272.8,-5.43,-7.19,-7.99,0,*6E
1485911235.64,6984,9.75,73268.5,-5.45,-7.31,-8.03,0,*69
1485911236.89,6985,9.75,73274.0,-5.43,-7.27,-8.07,0,*6D
1485911238.13,6986,9.75,73272.5,-5.43,-7.27,-7.99,0,*66
1485911239.37,6987,9.75,73270.3,-5.45,-7.31,-8.17,0,*6F
1485911240.61,6988,9.75,73274.5,-5.43,-7.27,-8.07,0,*60
1485911241.83,6989,9.75,73270.0,-5.43,-7.31,-8.21,0,*62
1485911243.1,6990,9.75,73268.5,-5.45,-7.43,-8.11,0,*6A
1485911244.34,6991,9.75,73272.3,-5.43,-7.39,-8.11,0,*60
1485911245.58,6992,9.75,73270.8,-5.43,-7.43,-8.11,0,*6E
1485911246.79,6993,9.75,73272.3,-5.43,-7.39,-8.21,0,*61
1485911248.03,6994,9.75,73274.5,-5.43,-7.43,-8.11,0,*68
1485911249.25,6995,9.75,73272.3,-5.43,-7.39,-8.21,0,*67
1485911250.47,6996,9.75,73270.8,-5.43,-7.43,-8.21,0,*69
1485911251.68,6997,9.75,73270.5,-5.43,-7.43,-8.25,0,*6C
1485911252.87,6998,9.75,73268.5,-5.43,-7.53,-8.25,0,*62
1485911254.06,6999,9.75,73268.5,-5.43,-7.53,-8.21,0,*67
1485911255.28,7000,9.75,73272.8,-5.43,-7.43,-8.25,0,*6A
1485911256.47,7001,9.75,73272.8,-5.43,-7.53,-8.25,0,*6A
1485911257.65,7002,9.75,73274.0,-5.43,-7.53,-8.33,0,*6E
1485911258.84,7003,9.75,73270.8,-5.43,-7.53,-8.25,0,*68
1485911260.02,7004,9.75,73274.3,-5.43,-7.53,-8.33,0,*68
1485911261.26,7005,9.75,73274.5,-5.45,-7.69,-8.29,0,*6D
1485911262.51,7006,9.75,73270.8,-5.45,-7.69,-8.37,0,*61
1485911263.72,7007,9.75,73274.0,-5.43,-7.65,-8.33,0,*6E
1485911264.97,7008,9.75,73272.0,-5.45,-7.69,-8.37,0,*6F
1485911266.18,7009,9.75,73272.0,-5.43,-7.65,-8.33,0,*60
1485911267.4,7010,9.75,73272.3,-5.43,-7.69,-8.37,0,*60
1485911268.62,7011,9.75,73276.5,-5.43,-7.77,-8.37,0,*6E
1485911269.84,7012,9.75,73272.0,-5.45,-7.83,-8.41,0,*61
1485911271.06,7013,9.75,73274.3,-5.45,-7.87,-8.41,0,*64
1485911272.25,7014,9.75,73274.3,-5.43,-7.83,-8.41,0,*61
1485911273.47,7015,9.75,73272.3,-5.45,-7.87,-8.37,0,*63
1485911274.69,7016,9.75,73274.8,-5.45,-7.83,-8.41,0,*65
1485911275.93,7017,9.75,73274.8,-5.45,-7.87,-8.51,0,*61
1485911277.15,7018,9.75,73272.5,-5.45,-7.87,-8.41,0,*6F
1485911278.37,7019,9.75,73274.5,-5.45,-7.87,-8.41,0,*6E
1485911279.61,7020,9.75,73272.8,-5.45,-7.87,-8.51,0,*65
1485911280.85,7021,9.75,73272.5,-5.45,-7.87,-8.51,0,*64
1485911282.07,7022,9.75,73272.5,-5.43,-7.91,-8.37,0,*66
1485911283.31,7023,9.75,73276.5,-5.45,-7.95,-8.41,0,*64
1485911284.53,7024,9.75,73276.5,-5.43,-7.91,-8.37,0,*60
1485911285.75,7025,9.75,73270.3,-5.43,-7.91,-8.45,0,*64
1485911286.99,7026,9.75,73272.8,-5.45,-7.95,-8.41,0,*61
1485911288.25,7027,9.75,73274.5,-5.45,-7.99,-8.51,0,*6D
1485911289.52,7028,9.75,73274.5,-5.45,-7.99,-8.51,0,*62
1485911290.74,7029,9.75,73272.0,-5.43,-7.99,-8.45,0,*60
1485911292.0,7030,9.75,73276.0,-5.45,-8.03,-8.51,0,*67
1485911293.24,7031,9.75,73274.0,-5.45,-8.03,-8.41,0,*67
1485911294.46,7032,9.75,73274.3,-5.43,-8.07,-8.45,0,*62
1485911295.68,7033,9.75,73274.3,-5.43,-7.99,-8.45,0,*6B
1485911296.95,7034,9.75,73274.8,-5.45,-8.11,-8.51,0,*60
1485911298.16,7035,9.75,73272.8,-5.43,-8.03,-8.45,0,*61
1485911299.44,7036,9.75,73272.0,-5.45,-8.11,-8.51,0,*62
1485911300.68,7037,9.75,73276.5,-5.45,-8.11,-8.41,0,*62
1485911301.92,7038,9.75,73274.5,-5.45,-8.17,-8.51,0,*6A
1485911303.14,7039,9.75,73276.0,-5.45,-8.17,-8.41,0,*6A
1485911304.39,7040,9.75,73278.5,-5.45,-8.25,-8.51,0,*64
1485911305.63,7041,9.75,73278.3,-5.45,-8.17,-8.51,0,*64
1485911306.88,7042,9.75,73272.5,-5.45,-8.25,-8.51,0,*66
1485911308.09,7043,9.75,73276.8,-5.43,-8.25,-8.51,0,*61
1485911309.33,7044,9.75,73276.3,-5.45,-8.29,-8.51,0,*6C
1485911310.53,7045,9.75,73274.0,-5.43,-8.25,-8.45,0,*62
1485911311.77,7046,9.75,73274.5,-5.45,-8.29,-8.51,0,*6E
1485911313.01,7047,9.75,73274.5,-5.45,-8.29,-8.51,0,*6F
1485911314.25,7048,9.75,73274.0,-5.45,-8.29,-8.51,0,*60
1485911315.47,7049,9.75,73272.8,-5.45,-8.29,-8.41,0,*60
1485911316.69,7050,9.75,73274.5,-5.45,-8.29,-8.41,0,*68
1485911317.93,7051,9.75,73278.5,-5.45,-8.37,-8.51,0,*67
1485911319.15,7052,9.75,73272.0,-5.45,-8.37,-8.41,0,*65
1485911320.37,7053,9.75,73276.8,-5.45,-8.29,-8.41,0,*6B
1485911321.61,7054,9.75,73274.5,-5.45,-8.37,-8.51,0,*62
1485911322.86,7055,9.75,73274.5,-5.45,-8.37,-8.51,0,*63
1485911324.1,7056,9.75,73278.5,-5.45,-8.29,-8.51,0,*6F
1485911325.34,7057,9.75,73272.8,-5.45,-8.37,-8.51,0,*61